Pagina principale
METAR-TAF:

METAR-TAF

Aeroporti :

Ermelo, Sudafrica

latitudine: 26-29-44S, longitudine: 29-58-47E, altezza: 1737 m

Osservazione

Il bollettino è stato emesso 46 minuti fa, alle 05:34 UTC
Vento 6 kt da nord/nord-est
Temperature 4°C
Umidità 100%
Pressione 1029 hPa

METAR: FAEO 270534Z AUTO 02006KT //// // ////// 04/04 Q1029

Ora: 08:20 (06:20 UTC)


TAF: mancante

Osservazioni e previsioni meteorologiche di più di 4000 aeroporti (messaggi METAR e TAF).

Le stazioni disponibili sono rappresentate dai dischi gialli e rossi sulla carta.

Puntare il mouse per vedere il nome della stazione.

Clicca sopra per visualizzare le osservazioni e previsioni meteorologiche.

Per cambiare la mappa : fare clic sui pulsanti verdi con una croce nera per ingrandire, il pulsante verde con un trattino per diminuire, o sulla freccia verde per le mappe adiacenti.


METAR-TAF: